Location: Ceske Budejovice
(48.9830°N, 14.4670°E)
Time: 08:53:15
(UTC+02:00)

ISS - Visible Passes

Search period start: 20 October 2021 00:00
Search period end: 30 October 2021 00:00
Orbit: 417 x 423 km, 51.6° (Epoch: 20 October)

Date Brightness Start Highest point End Pass type
(mag) Time Alt. Az. Time Alt. Az. Time Alt. Az.
23 Oct -1.5 06:15:45 10° SSW 06:18:28 23° SE 06:21:13 10° E visible
24 Oct -1.1 05:29:55 12° S 05:31:33 16° SE 05:33:39 10° E visible
25 Oct -3.0 06:18:17 15° SW 06:20:52 50° SSE 06:24:09 10° ENE visible
26 Oct -2.5 05:33:31 33° SSE 05:33:54 34° SSE 05:37:00 10° E visible
27 Oct -0.8 04:48:39 16° E 04:48:39 16° E 04:49:45 10° E visible
27 Oct -3.8 06:21:40 24° WSW 06:23:32 86° NNW 06:26:56 10° ENE visible
28 Oct -3.6 05:36:44 69° ESE 05:36:44 69° ESE 05:39:54 10° ENE visible
28 Oct -3.4 07:10:11 10° W 07:13:30 53° N 07:16:49 10° ENE visible
29 Oct -0.9 04:51:47 19° E 04:51:47 19° E 04:52:52 10° ENE visible
29 Oct -3.5 06:24:47 26° W 06:26:26 58° N 06:29:47 10° ENE visible
